Weather in Kendelen

Russia / The Kabardino-Balkar Republic     43°35′38″N   43°10′32″E
temp.,
°C
wind,
m/s
gust,
m/s
humid.,
%
clouds,
%
prec.,
mm/h
press.,
hPa
HPBL,
m
2 march, tue
tue200:00−7sw3368100 0.0 103053
03:00−7sw4461100 0.0 103060
06:00−9sw446228 0.0 103146
09:00−4sw126814 0.0 1030108
12:00−2ene11860 0.0 1027481
15:00−1ene11932 0.0 1026410
18:00−6s119517 0.0 102621
21:00−8sw446614 0.0 102742
3 march, wed
wed300:00−7sw55610 0.0 102559
03:00−8sw44600 0.0 102449
06:00−7sw446396 0.0 102349
09:00−3wnw016993 0.0 1022139
12:00−3ene2185100 0.0 1020307
15:00−2nne3286100 0.1 1020388
18:00−4ene2398100 1.7 1023144
21:00−7sw3384100 2.6 102673
4 march, thu
thu400:00−9sw346684 0.1 102840
03:00−10sw336581 0.1 102927
06:00−10ssw33656 0.0 102923
09:00−4se01683 0.0 1028150
12:00−1ene11850 0.0 1026380
15:00−1ene119412 0.0 1024348
18:00−6s119744 0.0 102421
21:00−6sw336925 0.0 102523
5 march, fri
fri500:00−6sw34550 0.0 102428
03:00−6sw33500 0.0 102326
06:00−5sw44490 0.0 102230
09:000wsw12660 0.0 102170
12:00+3nne11780 0.0 1019290
15:00+3ene10780 0.0 1019343
18:00−1ssw22830 0.0 102021
21:00−2sw45520 0.0 102250
6 march, sat
sat600:00−2sw55470 0.0 102148
03:00−1sw55440 0.0 102055
06:00−1sw55422 0.0 102056
09:00+3sw33567 0.0 101859
12:00+7ese11572 0.0 1015358
15:00+6ese117451 0.0 101429
18:00+2sw3362100 0.0 101426
21:000sw5757100 0.0 1016100